Torna al catalogo

ATLAS 5 CENTAUR DEB

LostHEO
NORAD 55856·DEBRIS·🇺🇸 United States

Lanciato Oct 17, 2018 da Cape Canaveral Space Force Station

Loading…

Prossimi Passaggi (prossime 24 ore)

TLE

ObsoletoSource: Space-Track

Epoca: Jul 25, 2026, 00:02 UTC

1 55856U 18079HJ  26206.00188946 -.00000113  00000-0  00000-0 0  9992
2 55856  14.0578   8.3084 4549547   1.2408 359.5187  1.90454767 15830

Traccia ATLAS 5 CENTAUR DEB in tempo reale con AllMySat

Download on the App Store